Regional Weather Roundup
Issued by NWS

Home | Current Version | Previous Version | Text Only | Print | Product List | Glossary On
Versions: 1 2 3 4 5 6 7 8 9 10 11 12 13 14 15 16 17 18 19 20 21 22 23 24 25 26 27 28 29 30 31 32 33 34 35 36 37 38 39 40 41 42 43 44 45 46 47 48 49 50
000
ASUS43 KMKX 250500
RWRWI

WISCONSIN REGIONAL WEATHER ROUNDUP
NATIONAL WEATHER SERVICE MILWAUKEE/SULLIVAN WI
1200 AM CDT MON JUL 25 2016

NOTE: "FAIR" INDICATES FEW OR NO CLOUDS BELOW 12,000 FEET WITH NO
SIGNIFICANT WEATHER AND/OR OBSTRUCTIONS TO VISIBILITY.

WIZ001-002-006>008-014>016-023>028-250600-
NORTHWEST WISCONSIN

CITY           SKY/WX    TMP DP  RH WIND       PRES   REMARKS
SUPERIOR ARPT  CLEAR     67  62  85 W6        29.89R
ASHLAND        CLEAR     68  61  78 SW8       29.89R
HAYWARD        CLEAR     69  61  75 VRB3      29.93R
SIREN          NOT AVBL
CUMBERLAND     CLEAR     64  61  88 W6        29.96R
RICE LAKE      CLEAR     67  61  81 W5        29.96S
CHETEK         CLEAR     69  62  78 W6        29.95S
LADYSMITH      CLEAR     68  62  81 W5        29.95S
EAU CLAIRE     NOT AVBL
MENOMONIE      CLEAR     71  63  75 SW6       29.96R
NEW RICHMOND   CLEAR     66  60  82 W5        29.97R
OSCEOLA        CLEAR     69  62  77 W6        29.99R
$$

WIZ003>005-009-010-017-018-250600-
NORTH CENTRAL WISCONSIN

CITY           SKY/WX    TMP DP  RH WIND       PRES   REMARKS
MANITOWISH WTR CLEAR     62  62 100 CALM      29.91S
ARBOR VITAE    CLEAR     69  63  80 W5        29.91S
WOODRUFF       CLEAR     69  63  80 W5        29.91S
RHINELANDER    CLEAR     64  61  90 W6        29.92S
EAGLE RIVER    CLEAR     63  61  94 W5        29.90S
LAND O LAKES   CLEAR     68  60  76 W5        29.91S
PHILLIPS       CLEAR     66  62  86 CALM      29.92S
TOMAHAWK       CLEAR     64  60  85 W5        29.93S
MEDFORD        CLEAR     66  66 100 W6        29.95R
MERRILL        CLEAR     67  63  85 W7        29.93S
$$

WIZ029-030-035-036-043>047-250600-
CENTRAL WISCONSIN

CITY           SKY/WX    TMP DP  RH WIND       PRES   REMARKS
WAUSAU         CLEAR     69  62  78 NW8       29.91R
MOSINEE        CLEAR     66  63  88 W6        29.94R
MARSHFIELD     CLOUDY    68  62  81 W6        29.94R
STEVENS POINT  CLEAR     69  63  79 W5        29.93S
WAUPACA        CLEAR     73  66  78 W3        29.91S
WAUTOMA        CLEAR     70  65  84 W5        29.93R
WISC RAPIDS    CLEAR     68  62  81 NW6       29.94S
CAMP DOUGLAS   NOT AVBL
$$

WIZ011>013-019>022-031-037>040-048>050-250600-
NORTHEAST WISCONSIN

CITY           SKY/WX    TMP DP  RH WIND       PRES   REMARKS
ANTIGO         CLEAR     65  63  91 CALM      29.93R
SHAWANO        PTCLDY    73  65  75 W5        29.89R
OCONTO         CLEAR     72  72 100 W6        29.84S
STURGEON BAY   PTCLDY    75  67  76 W9        29.86R
GREEN BAY      CLEAR     72  68  87 W8        29.87R
MANITOWOC      NOT AVBL
APPLETON       CLEAR     72  61  68 NW10      29.88R
CLINTONVILLE   CLEAR     70  63  78 W6        29.89S
OSHKOSH        PTCLDY    73  65  75 W8        29.90R
$$

WIZ032>034-041-042-053>061-250600-
SOUTHWEST WISCONSIN

CITY           SKY/WX    TMP DP  RH WIND       PRES   REMARKS
LA CROSSE      PTCLDY    73  66  78 NW6       29.94S
SPARTA         CLEAR     68  65  91 W3        29.95S
VIROQUA        PTCLDY    68  65  92 W6        29.97S
BOSCOBEL       CLEAR     69  67  93 CALM      29.96R
PRAIRIE DU CHI CLEAR     71  64  79 CALM      29.96S
PLATTEVILLE    PTCLDY    69  69 100 W6        29.97R
$$

WIZ056-057-062-063-064-067-068-250600-
SOUTH CENTRAL WISCONSIN

CITY           SKY/WX    TMP DP  RH WIND       PRES   REMARKS
REEDSBURG      PTCLDY    70  67  91 CALM      29.93S
BARABOO/DELLS  PTCLDY    70  64  80 W5        29.94R
LONE ROCK      NOT AVBL
MINERAL POINT  PTCLDY    72  68  88 W6        29.96S
MADISON        CLOUDY    75  66  73 NW5       29.93R
MIDDLETON      CLOUDY    74  68  81 CALM      29.94R
WATERTOWN      CLOUDY    75  68  78 W6        29.91R
MONROE         CLOUDY    73  66  78 W8        29.94S
JANESVILLE     MOCLDY    73  68  83 NW7       29.90F
$$

WIZ051-052-058>065-066-070>072-250600-
SOUTHEAST WISCONSIN

CITY           SKY/WX    TMP DP  RH WIND       PRES   REMARKS
MILWAUKEE      CLOUDY    82  67  60 NW7       29.90R HX  84
WAUKESHA       CLOUDY    75  63  64 W8        29.92R
MILWAUKEE/TIMM MOCLDY    77  63  61 W6        29.90R
RACINE         CLOUDY    79  68  69 NW8       29.91R HX  81
BURLINGTON     CLOUDY    75  69  81 CALM      29.92R
KENOSHA        CLOUDY    76  68  76 W6        29.92R
FOND DU LAC    CLOUDY    75  66  73 W8        29.91R
SHEBOYGAN      CLOUDY    74  67  78 W7        29.88R
WEST BEND      CLOUDY    77  64  65 W6        29.90R
JUNEAU         CLOUDY    74  66  76 W5        29.92R
$$

LSZ147-162-250600-
LAKE SUPERIOR

STATION/POSITION TIME  TEMP    WIND        PRES    WAVE
                       AIR SEA DIR/SP/G            HT/PER
                 (UTC) (F)     (DEG/KT/KT) (MB)    (FT/S)
W MID LAKE BUOY  0350   64 59  260/ 12/ 12 1008.7R   1/ 4
DEVILS ISLAND    0400   67     250/ 15/ 17 1010.1R
SAXON HARBOR     0400   73     210/  6/ 10 1011.2R
$$

LMZ867-665-643>646-250600-
LAKE MICHIGAN

STATION/POSITION TIME  TEMP    WIND        PRES    WAVE
                       AIR SEA DIR/SP/G            HT/PER
                 (UTC) (F)     (DEG/KT/KT) (MB)    (FT/S)
CHAMBERS ISLAND  0400   75     230/  3/  9 1009.8R
S GREEN BAY BUOY 0400   75 73  260/  8/ 10   N/A
N MID LAKE BUOY  0350   71 68  280/  8/  8 1008.4R   3/ 6
NORTHPORT PIER   0400   76     320/ 13/ 15 1009.5R
KEWAUNEE LAKESHO 0400   75     300/  3/  4 1010.1R
SHEBOYGAN LAKESH 0400   79     280/  5/  6 1011.1R
PORT WASHINGTON  0440   79     290/  2/  5 1012.5R
MILWAUKEE LAKESH 0410   82     310/  4/  6   N/A
S MID LAKE BUOY  0350   76 73  250/ 10/ 12 1010.2F   2/ 4
KENOSHA   LAKESH 0400   83     300/  3/  5 1011.2R
$$

TC  - TEMPERATURE IN CELSIUS
VSB - VISIBILITY IN STATUTE MILES
WCI - WIND CHILL INDEX
HX  - HEAT INDEX





USA.gov is the U.S. government's official web portal to all federal, state and local government web resources and services.